START_TIME,STEP,MOV.,M35,t_acc.,PL05,t_acc.,PL06,t_acc.,PL07,t_acc.
1979-07-05 12:00:24.640 ,0,0,0.,4.8,9.,4.8,2.,4.8,0.,4.8
1979-07-05 12:00:29.440 ,0,0,0.,4.8,10.,4.8,1.,4.8,1.,4.8
1979-07-05 12:00:34.240 ,0,0,0.,4.8,6.,4.8,1.,4.8,0.,4.8
1979-07-05 12:00:39.040 ,0,0,0.,4.8,5.,4.8,1.,4.8,0.,4.8
1979-07-05 12:00:43.840 ,0,0,0.,4.8,4.,4.8,0.,4.8,0.,4.8
1979-07-05 12:00:48.640 ,1,0,0.,4.8,2.,4.8,0.,4.8,2.,4.8
1979-07-05 12:00:53.440 ,1,0,0.,4.8,7.,4.8,0.,4.8,0.,4.8
1979-07-05 12:00:58.240 ,1,0,0.,4.8,5.,4.8,1.,4.8,0.,4.8
1979-07-05 12:01:03.040 ,1,0,0.,4.8,0.,4.8,1.,4.8,0.,4.8
1979-07-05 12:01:07.840 ,1,0,0.,4.8,0.,4.8,0.,4.8,0.,4.8
1979-07-05 12:01:12.640 ,1,0,0.,4.8,5.,4.8,1.,4.8,1.,4.8
1979-07-05 12:01:17.440 ,1,0,0.,4.8,1.,4.8,1.,4.8,1.,4.8
1979-07-05 12:01:22.240 ,1,0,0.,4.8,2.,4.8,2.,4.8,0.,4.8
1979-07-05 12:01:27.040 ,1,0,0.,4.8,8.,4.8,0.,4.8,0.,4.8
1979-07-05 12:01:31.840 ,1,0,0.,4.8,2.,4.8,1.,4.8,0.,4.8
1979-07-05 12:01:36.640 ,2,0,0.,4.8,0.,4.8,1.,4.8,1.,4.8
1979-07-05 12:01:41.440 ,2,0,0.,4.8,4.,4.8,0.,4.8,0.,4.8
1979-07-05 12:01:46.240 ,2,0,0.,4.8,5.,4.8,1.,4.8,0.,4.8
1979-07-05 12:01:51.040 ,2,0,0.,4.8,3.,4.8,2.,4.8,0.,4.8
1979-07-05 12:01:55.840 ,2,0,0.,4.8,3.,4.8,0.,4.8,0.,4.8
1979-07-05 12:02:00.640 ,2,0,0.,4.8,1.,4.8,1.,4.8,0.,4.8
1979-07-05 12:02:05.440 ,2,0,0.,4.8,2.,4.8,0.,4.8,0.,4.8
1979-07-05 12:02:10.240 ,2,0,0.,4.8,3.,4.8,1.,4.8,1.,4.8
1979-07-05 12:02:15.040 ,2,0,0.,4.8,3.,4.8,0.,4.8,0.,4.8
1979-07-05 12:02:19.840 ,2,0,0.,4.8,2.,4.8,1.,4.8,0.,4.8
1979-07-05 12:02:24.640 ,3,0,0.,4.8,4.,4.8,0.,4.8,1.,4.8
1979-07-05 12:02:29.440 ,3,0,0.,4.8,3.,4.8,0.,4.8,3.,4.8
1979-07-05 12:02:34.240 ,3,0,0.,4.8,4.,4.8,2.,4.8,0.,4.8
1979-07-05 12:02:39.040 ,3,0,0.,4.8,5.,4.8,1.,4.8,2.,4.8
1979-07-05 12:02:43.840 ,3,0,0.,4.8,12.,4.8,1.,4.8,3.,4.8
1979-07-05 12:02:48.640 ,3,0,0.,4.8,6.,4.8,0.,4.8,0.,4.8
1979-07-05 12:02:53.440 ,3,0,0.,4.8,6.,4.8,5.,4.8,1.,4.8
1979-07-05 12:02:58.240 ,3,0,0.,4.8,4.,4.8,3.,4.8,1.,4.8
1979-07-05 12:03:03.040 ,3,0,0.,4.8,9.,4.8,0.,4.8,0.,4.8
1979-07-05 12:03:07.840 ,3,0,0.,4.8,5.,4.8,1.,4.8,1.,4.8
1979-07-05 12:03:12.640 ,4,0,0.,4.8,6.,4.8,2.,4.8,0.,4.8
1979-07-05 12:03:17.440 ,4,0,0.,4.8,3.,4.8,1.,4.8,0.,4.8
1979-07-05 12:03:22.240 ,4,0,0.,4.8,8.,4.8,0.,4.8,1.,4.8
1979-07-05 12:03:27.040 ,4,0,0.,4.8,6.,4.8,1.,4.8,0.,4.8
1979-07-05 12:03:31.840 ,4,0,0.,4.8,2.,4.8,1.,4.8,2.,4.8
1979-07-05 12:03:36.640 ,4,0,0.,4.8,9.,4.8,2.,4.8,1.,4.8
1979-07-05 12:03:41.440 ,4,0,0.,4.8,8.,4.8,0.,4.8,0.,4.8
1979-07-05 12:03:46.240 ,4,0,0.,4.8,7.,4.8,0.,4.8,0.,4.8
1979-07-05 12:03:51.040 ,4,0,0.,4.8,7.,4.8,1.,4.8,1.,4.8
1979-07-05 12:03:55.840 ,4,0,0.,4.8,4.,4.8,2.,4.8,0.,4.8
1979-07-05 12:04:00.640 ,5,0,0.,4.8,8.,4.8,1.,4.8,0.,4.8
1979-07-05 12:04:05.440 ,5,0,0.,4.8,6.,4.8,0.,4.8,0.,4.8
1979-07-05 12:04:10.240 ,5,0,0.,4.8,1.,4.8,2.,4.8,0.,4.8
1979-07-05 12:04:15.040 ,5,0,0.,4.8,6.,4.8,2.,4.8,0.,4.8
1979-07-05 12:04:19.840 ,5,0,0.,4.8,3.,4.8,0.,4.8,0.,4.8
1979-07-05 12:04:24.640 ,5,0,0.,4.8,5.,4.8,0.,4.8,1.,4.8
1979-07-05 12:04:29.440 ,5,0,0.,4.8,5.,4.8,1.,4.8,0.,4.8
1979-07-05 12:04:34.240 ,5,0,0.,4.8,8.,4.8,1.,4.8,0.,4.8
1979-07-05 12:04:39.040 ,5,0,0.,4.8,3.,4.8,2.,4.8,1.,4.8
1979-07-05 12:04:43.840 ,5,0,0.,4.8,8.,4.8,0.,4.8,0.,4.8
1979-07-05 12:04:48.640 ,6,0,0.,4.8,2.,4.8,1.,4.8,1.,4.8
1979-07-05 12:04:53.440 ,6,0,0.,4.8,5.,4.8,0.,4.8,1.,4.8
1979-07-05 12:04:58.240 ,6,0,0.,4.8,5.,4.8,0.,4.8,1.,4.8
1979-07-05 12:05:03.040 ,6,0,0.,4.8,4.,4.8,1.,4.8,0.,4.8
1979-07-05 12:05:07.840 ,6,0,0.,4.8,6.,4.8,3.,4.8,1.,4.8
1979-07-05 12:05:12.640 ,6,0,0.,4.8,5.,4.8,2.,4.8,1.,4.8
1979-07-05 12:05:17.440 ,6,0,0.,4.8,1.,4.8,0.,4.8,1.,4.8
1979-07-05 12:05:22.240 ,6,0,0.,4.8,8.,4.8,2.,4.8,0.,4.8
1979-07-05 12:05:27.040 ,6,0,0.,4.8,1.,4.8,0.,4.8,0.,4.8
1979-07-05 12:05:31.840 ,6,0,0.,4.8,9.,4.8,0.,4.8,0.,4.8
1979-07-05 12:05:36.640 ,7,0,0.,4.8,10.,4.8,1.,4.8,0.,4.8
1979-07-05 12:05:41.440 ,7,0,0.,4.8,3.,4.8,2.,4.8,0.,4.8
1979-07-05 12:05:46.240 ,7,0,0.,4.8,0.,4.8,0.,4.8,0.,4.8
1979-07-05 12:05:51.040 ,7,0,0.,4.8,0.,4.8,0.,4.8,0.,4.8
1979-07-05 12:05:55.840 ,7,0,0.,4.8,0.,4.8,0.,4.8,0.,4.8
1979-07-05 12:06:00.640 ,7,0,0.,4.8,1.,4.8,0.,4.8,0.,4.8
1979-07-05 12:06:05.440 ,7,0,0.,4.8,1.,4.8,0.,4.8,0.,4.8
1979-07-05 12:06:10.240 ,7,0,0.,4.8,0.,4.8,0.,4.8,0.,4.8
1979-07-05 12:06:15.040 ,7,0,0.,4.8,1.,4.8,0.,4.8,0.,4.8
1979-07-05 12:06:19.840 ,7,0,0.,4.8,0.,4.8,0.,4.8,0.,4.8
1979-07-05 12:06:24.640 ,7,0,0.,4.8,0.,4.8,0.,4.8,0.,4.8
1979-07-05 12:06:29.440 ,7,0,0.,4.8,0.,4.8,0.,4.8,0.,4.8
1979-07-05 12:06:34.240 ,7,0,0.,4.8,2.,4.8,0.,4.8,0.,4.8
1979-07-05 12:06:39.040 ,7,0,0.,4.8,1.,4.8,1.,4.8,0.,4.8
1979-07-05 12:06:43.840 ,7,0,0.,4.8,0.,4.8,1.,4.8,0.,4.8
1979-07-05 12:06:48.640 ,7,0,0.,4.8,0.,4.8,2.,4.8,0.,4.8
1979-07-05 12:06:53.440 ,7,0,0.,4.8,2.,4.8,0.,4.8,1.,4.8
1979-07-05 12:06:58.240 ,7,0,0.,4.8,0.,4.8,0.,4.8,0.,4.8
1979-07-05 12:07:03.040 ,7,0,0.,4.8,2.,4.8,0.,4.8,0.,4.8
1979-07-05 12:07:07.840 ,7,0,0.,4.8,0.,4.8,0.,4.8,0.,4.8
1979-07-05 12:07:12.640 ,6,0,0.,4.8,0.,4.8,0.,4.8,0.,4.8
1979-07-05 12:07:17.440 ,6,0,0.,4.8,0.,4.8,0.,4.8,0.,4.8
1979-07-05 12:07:22.240 ,6,0,0.,4.8,7.,4.8,1.,4.8,0.,4.8
1979-07-05 12:07:27.040 ,6,0,0.,4.8,3.,4.8,0.,4.8,1.,4.8
1979-07-05 12:07:31.840 ,6,0,0.,4.8,6.,4.8,0.,4.8,1.,4.8
1979-07-05 12:07:36.640 ,6,0,0.,4.8,2.,4.8,0.,4.8,0.,4.8
1979-07-05 12:07:41.440 ,6,0,0.,4.8,5.,4.8,0.,4.8,3.,4.8
1979-07-05 12:07:46.240 ,6,0,0.,4.8,6.,4.8,1.,4.8,1.,4.8
1979-07-05 12:07:51.040 ,6,0,0.,4.8,1.,4.8,1.,4.8,0.,4.8
1979-07-05 12:07:55.840 ,6,0,0.,4.8,1.,4.8,0.,4.8,0.,4.8
1979-07-05 12:08:00.640 ,5,0,0.,4.8,8.,4.8,0.,4.8,1.,4.8
1979-07-05 12:08:05.440 ,5,0,0.,4.8,3.,4.8,0.,4.8,0.,4.8
1979-07-05 12:08:10.240 ,5,0,0.,4.8,9.,4.8,1.,4.8,1.,4.8
1979-07-05 12:08:15.040 ,5,0,0.,4.8,2.,4.8,0.,4.8,0.,4.8
1979-07-05 12:08:19.840 ,5,0,0.,4.8,5.,4.8,1.,4.8,0.,4.8
1979-07-05 12:08:24.640 ,5,0,0.,4.8,5.,4.8,0.,4.8,1.,4.8
1979-07-05 12:08:29.440 ,5,0,0.,4.8,4.,4.8,1.,4.8,1.,4.8
1979-07-05 12:08:34.240 ,5,0,0.,4.8,8.,4.8,1.,4.8,0.,4.8
1979-07-05 12:08:39.040 ,5,0,0.,4.8,3.,4.8,1.,4.8,0.,4.8
1979-07-05 12:08:43.840 ,5,0,0.,4.8,6.,4.8,2.,4.8,0.,4.8
1979-07-05 12:08:48.640 ,4,0,0.,4.8,5.,4.8,1.,4.8,1.,4.8
1979-07-05 12:08:53.440 ,4,0,0.,4.8,4.,4.8,1.,4.8,0.,4.8
1979-07-05 12:08:58.240 ,4,0,0.,4.8,8.,4.8,0.,4.8,0.,4.8
1979-07-05 12:09:03.040 ,4,0,0.,4.8,7.,4.8,1.,4.8,0.,4.8
1979-07-05 12:09:07.840 ,4,0,0.,4.8,5.,4.8,0.,4.8,0.,4.8
1979-07-05 12:09:12.640 ,4,0,0.,4.8,10.,4.8,3.,4.8,0.,4.8
1979-07-05 12:09:17.440 ,4,0,0.,4.8,6.,4.8,2.,4.8,0.,4.8
1979-07-05 12:09:22.240 ,4,0,0.,4.8,3.,4.8,1.,4.8,0.,4.8
1979-07-05 12:09:27.040 ,4,0,0.,4.8,9.,4.8,2.,4.8,2.,4.8
1979-07-05 12:09:31.840 ,4,0,0.,4.8,10.,4.8,1.,4.8,0.,4.8
1979-07-05 12:09:36.640 ,3,0,0.,4.8,5.,4.8,1.,4.8,1.,4.8
1979-07-05 12:09:41.440 ,3,0,0.,4.8,8.,4.8,1.,4.8,0.,4.8
1979-07-05 12:09:46.240 ,3,0,0.,4.8,4.,4.8,2.,4.8,2.,4.8
1979-07-05 12:09:51.040 ,3,0,0.,4.8,3.,4.8,1.,4.8,1.,4.8
1979-07-05 12:09:55.840 ,3,0,0.,4.8,6.,4.8,4.,4.8,1.,4.8
1979-07-05 12:10:00.640 ,3,0,0.,4.8,6.,4.8,2.,4.8,0.,4.8
1979-07-05 12:10:05.440 ,3,0,0.,4.8,8.,4.8,3.,4.8,3.,4.8
1979-07-05 12:10:10.240 ,3,0,0.,4.8,4.,4.8,4.,4.8,0.,4.8
1979-07-05 12:10:15.040 ,3,0,0.,4.8,4.,4.8,1.,4.8,0.,4.8
1979-07-05 12:10:19.840 ,3,0,0.,4.8,6.,4.8,1.,4.8,0.,4.8
1979-07-05 12:10:24.640 ,2,0,0.,4.8,7.,4.8,0.,4.8,2.,4.8
1979-07-05 12:10:29.440 ,2,0,0.,4.8,7.,4.8,1.,4.8,1.,4.8
1979-07-05 12:10:34.240 ,2,0,0.,4.8,3.,4.8,3.,4.8,0.,4.8
1979-07-05 12:10:39.040 ,2,0,0.,4.8,3.,4.8,2.,4.8,2.,4.8
1979-07-05 12:10:43.840 ,2,0,0.,4.8,4.,4.8,0.,4.8,1.,4.8
1979-07-05 12:10:48.640 ,2,0,0.,4.8,3.,4.8,0.,4.8,0.,4.8
1979-07-05 12:10:53.440 ,2,0,0.,4.8,0.,4.8,1.,4.8,0.,4.8
1979-07-05 12:10:58.240 ,2,0,0.,4.8,4.,4.8,3.,4.8,1.,4.8
1979-07-05 12:11:03.040 ,2,0,0.,4.8,0.,4.8,1.,4.8,1.,4.8
1979-07-05 12:11:07.840 ,2,0,0.,4.8,2.,4.8,0.,4.8,1.,4.8
1979-07-05 12:11:12.640 ,1,0,0.,4.8,4.,4.8,1.,4.8,1.,4.8
1979-07-05 12:11:17.440 ,1,0,0.,4.8,2.,4.8,1.,4.8,1.,4.8
1979-07-05 12:11:22.240 ,1,0,0.,4.8,3.,4.8,1.,4.8,1.,4.8
1979-07-05 12:11:27.040 ,1,0,0.,4.8,4.,4.8,0.,4.8,0.,4.8
1979-07-05 12:11:31.840 ,1,0,0.,4.8,2.,4.8,0.,4.8,0.,4.8
1979-07-05 12:11:36.640 ,1,0,0.,4.8,6.,4.8,0.,4.8,0.,4.8
1979-07-05 12:11:41.440 ,1,0,0.,4.8,1.,4.8,1.,4.8,2.,4.8
1979-07-05 12:11:46.240 ,1,0,0.,4.8,2.,4.8,0.,4.8,1.,4.8
1979-07-05 12:11:51.040 ,1,0,0.,4.8,4.,4.8,1.,4.8,0.,4.8
1979-07-05 12:11:55.840 ,1,0,0.,4.8,2.,4.8,1.,4.8,0.,4.8
1979-07-05 12:12:00.640 ,0,0,0.,4.8,4.,4.8,1.,4.8,0.,4.8
1979-07-05 12:12:05.440 ,0,0,0.,4.8,3.,4.8,2.,4.8,0.,4.8
1979-07-05 12:12:10.240 ,0,0,0.,4.8,5.,4.8,0.,4.8,0.,4.8
1979-07-05 12:12:15.040 ,0,0,0.,4.8,5.,4.8,1.,4.8,0.,4.8
1979-07-05 12:12:19.840 ,0,0,0.,4.8,3.,4.8,0.,4.8,1.,4.8
1979-07-05 12:12:24.640 ,0,0,0.,4.8,4.,4.8,1.,4.8,0.,4.8
1979-07-05 12:12:29.440 ,0,0,0.,4.8,3.,4.8,1.,4.8,0.,4.8
1979-07-05 12:12:34.240 ,0,0,0.,4.8,3.,4.8,2.,4.8,0.,4.8
1979-07-05 12:12:39.040 ,0,0,0.,4.8,4.,4.8,0.,4.8,4.,4.8
1979-07-05 12:12:43.840 ,0,0,0.,4.8,5.,4.8,0.,4.8,1.,4.8
1979-07-05 12:12:48.640 ,0,0,0.,4.8,1.,4.8,0.,4.8,1.,4.8
1979-07-05 12:12:53.440 ,0,0,0.,4.8,5.,4.8,0.,4.8,1.,4.8
1979-07-05 12:12:58.240 ,0,0,0.,4.8,11.,4.8,1.,4.8,0.,4.8
1979-07-05 12:13:03.040 ,0,0,0.,4.8,4.,4.8,0.,4.8,0.,4.8
1979-07-05 12:13:07.840 ,0,0,0.,4.8,3.,4.8,2.,4.8,0.,4.8
1979-07-05 12:13:12.640 ,0,0,0.,4.8,5.,4.8,2.,4.8,0.,4.8
1979-07-05 12:13:17.440 ,0,0,0.,4.8,8.,4.8,1.,4.8,1.,4.8
1979-07-05 12:13:22.240 ,0,0,0.,4.8,4.,4.8,3.,4.8,0.,4.8
1979-07-05 12:13:27.040 ,0,0,0.,4.8,9.,4.8,0.,4.8,0.,4.8
1979-07-05 12:13:31.840 ,0,0,0.,4.8,4.,4.8,1.,4.8,0.,4.8
1979-07-05 12:13:36.640 ,1,0,0.,4.8,5.,4.8,1.,4.8,0.,4.8
1979-07-05 12:13:41.440 ,1,0,0.,4.8,10.,4.8,0.,4.8,0.,4.8
1979-07-05 12:13:46.240 ,1,0,0.,4.8,3.,4.8,1.,4.8,0.,4.8
1979-07-05 12:13:51.040 ,1,0,0.,4.8,1.,4.8,3.,4.8,1.,4.8
1979-07-05 12:13:55.840 ,1,0,0.,4.8,3.,4.8,0.,4.8,0.,4.8
1979-07-05 12:14:00.640 ,1,0,0.,4.8,5.,4.8,1.,4.8,0.,4.8
1979-07-05 12:14:05.440 ,1,0,0.,4.8,5.,4.8,0.,4.8,1.,4.8
1979-07-05 12:14:10.240 ,1,0,0.,4.8,4.,4.8,0.,4.8,1.,4.8
1979-07-05 12:14:15.040 ,1,0,0.,4.8,3.,4.8,1.,4.8,1.,4.8
1979-07-05 12:14:19.840 ,1,0,0.,4.8,2.,4.8,1.,4.8,0.,4.8
1979-07-05 12:14:24.640 ,2,0,0.,4.8,5.,4.8,2.,4.8,0.,4.8
1979-07-05 12:14:29.440 ,2,0,0.,4.8,2.,4.8,1.,4.8,0.,4.8
1979-07-05 12:14:34.240 ,2,0,0.,4.8,0.,4.8,0.,4.8,0.,4.8
1979-07-05 12:14:39.040 ,2,0,0.,4.8,6.,4.8,0.,4.8,0.,4.8
1979-07-05 12:14:43.840 ,2,0,0.,4.8,4.,4.8,2.,4.8,0.,4.8
1979-07-05 12:14:48.640 ,2,0,0.,4.8,2.,4.8,1.,4.8,1.,4.8
1979-07-05 12:14:53.440 ,2,0,0.,4.8,0.,4.8,0.,4.8,1.,4.8
1979-07-05 12:14:58.240 ,2,0,0.,4.8,3.,4.8,0.,4.8,2.,4.8
1979-07-05 12:15:03.040 ,2,0,0.,4.8,5.,4.8,1.,4.8,0.,4.8
1979-07-05 12:15:07.840 ,2,0,0.,4.8,3.,4.8,1.,4.8,1.,4.8
1979-07-05 12:15:12.640 ,3,0,0.,4.8,3.,4.8,1.,4.8,1.,4.8
1979-07-05 12:15:17.440 ,3,0,0.,4.8,3.,4.8,0.,4.8,1.,4.8
1979-07-05 12:15:22.240 ,3,0,0.,4.8,5.,4.8,3.,4.8,0.,4.8
1979-07-05 12:15:27.040 ,3,0,0.,4.8,4.,4.8,5.,4.8,1.,4.8
1979-07-05 12:15:31.840 ,3,0,0.,4.8,7.,4.8,4.,4.8,0.,4.8
1979-07-05 12:15:36.640 ,3,0,0.,4.8,2.,4.8,1.,4.8,1.,4.8
1979-07-05 12:15:41.440 ,3,0,0.,4.8,5.,4.8,2.,4.8,0.,4.8
1979-07-05 12:15:46.240 ,3,0,0.,4.8,2.,4.8,1.,4.8,0.,4.8
1979-07-05 12:15:51.040 ,3,0,0.,4.8,5.,4.8,2.,4.8,2.,4.8
1979-07-05 12:15:55.840 ,3,0,0.,4.8,3.,4.8,1.,4.8,2.,4.8
1979-07-05 12:16:00.640 ,4,0,0.,4.8,4.,4.8,1.,4.8,1.,4.8
1979-07-05 12:16:05.440 ,4,0,0.,4.8,3.,4.8,1.,4.8,1.,4.8
1979-07-05 12:16:10.240 ,4,0,0.,4.8,13.,4.8,0.,4.8,1.,4.8
1979-07-05 12:16:15.040 ,4,0,0.,4.8,3.,4.8,3.,4.8,0.,4.8
1979-07-05 12:16:19.840 ,4,0,0.,4.8,7.,4.8,0.,4.8,0.,4.8
1979-07-05 12:16:24.640 ,4,0,0.,4.8,7.,4.8,4.,4.8,0.,4.8
1979-07-05 12:16:29.440 ,4,0,0.,4.8,8.,4.8,1.,4.8,2.,4.8
1979-07-05 12:16:34.240 ,4,0,1.,4.8,3.,4.8,0.,4.8,0.,4.8
1979-07-05 12:16:39.040 ,4,0,0.,4.8,7.,4.8,1.,4.8,0.,4.8
1979-07-05 12:16:43.840 ,4,0,0.,4.8,5.,4.8,2.,4.8,0.,4.8
1979-07-05 12:16:48.640 ,5,0,0.,4.8,12.,4.8,5.,4.8,0.,4.8
1979-07-05 12:16:53.440 ,5,0,0.,4.8,6.,4.8,4.,4.8,3.,4.8
1979-07-05 12:16:58.240 ,5,0,0.,4.8,5.,4.8,1.,4.8,1.,4.8
1979-07-05 12:17:03.040 ,5,0,0.,4.8,6.,4.8,0.,4.8,1.,4.8
1979-07-05 12:17:07.840 ,5,0,0.,4.8,4.,4.8,0.,4.8,0.,4.8
1979-07-05 12:17:12.640 ,5,0,0.,4.8,7.,4.8,1.,4.8,0.,4.8
1979-07-05 12:17:17.440 ,5,0,0.,4.8,7.,4.8,0.,4.8,0.,4.8
1979-07-05 12:17:22.240 ,5,0,0.,4.8,5.,4.8,0.,4.8,0.,4.8
1979-07-05 12:17:27.040 ,5,0,0.,4.8,5.,4.8,2.,4.8,0.,4.8
1979-07-05 12:17:31.840 ,5,0,0.,4.8,4.,4.8,1.,4.8,1.,4.8
1979-07-05 12:17:36.640 ,6,0,0.,4.8,2.,4.8,1.,4.8,0.,4.8
1979-07-05 12:17:41.440 ,6,0,0.,4.8,3.,4.8,0.,4.8,2.,4.8
1979-07-05 12:17:46.240 ,6,0,0.,4.8,4.,4.8,0.,4.8,1.,4.8
1979-07-05 12:17:51.040 ,6,0,0.,4.8,3.,4.8,2.,4.8,0.,4.8
1979-07-05 12:17:55.840 ,6,0,0.,4.8,3.,4.8,2.,4.8,1.,4.8
1979-07-05 12:18:00.640 ,6,0,0.,4.8,0.,4.8,2.,4.8,0.,4.8
1979-07-05 12:18:05.440 ,6,0,0.,4.8,6.,4.8,1.,4.8,0.,4.8
1979-07-05 12:18:10.240 ,6,0,0.,4.8,3.,4.8,1.,4.8,0.,4.8
1979-07-05 12:18:15.040 ,6,0,0.,4.8,2.,4.8,4.,4.8,0.,4.8
1979-07-05 12:18:19.840 ,6,0,0.,4.8,0.,4.8,2.,4.8,2.,4.8
1979-07-05 12:18:24.640 ,7,0,0.,4.8,2.,4.8,0.,4.8,0.,4.8
1979-07-05 12:18:29.440 ,7,0,0.,4.8,5.,4.8,0.,4.8,1.,4.8
1979-07-05 12:18:34.240 ,7,0,0.,4.8,0.,4.8,0.,4.8,0.,4.8
1979-07-05 12:18:39.040 ,7,0,0.,4.8,0.,4.8,0.,4.8,1.,4.8
1979-07-05 12:18:43.840 ,7,0,0.,4.8,1.,4.8,0.,4.8,0.,4.8
1979-07-05 12:18:48.640 ,7,0,0.,4.8,1.,4.8,0.,4.8,0.,4.8
1979-07-05 12:18:53.440 ,7,0,0.,4.8,0.,4.8,0.,4.8,0.,4.8
1979-07-05 12:18:58.240 ,7,0,0.,4.8,0.,4.8,0.,4.8,0.,4.8
1979-07-05 12:19:03.040 ,7,0,0.,4.8,1.,4.8,0.,4.8,0.,4.8
1979-07-05 12:19:07.840 ,7,0,0.,4.8,1.,4.8,0.,4.8,0.,4.8
1979-07-05 12:19:12.640 ,3,1,0.,4.8,2.,4.8,1.,4.8,0.,4.8
1979-07-05 12:19:17.440 ,3,1,0.,4.8,4.,4.8,0.,4.8,2.,4.8
1979-07-05 12:19:22.240 ,3,1,0.,4.8,7.,4.8,3.,4.8,0.,4.8
1979-07-05 12:19:27.040 ,3,1,0.,4.8,3.,4.8,0.,4.8,2.,4.8
1979-07-05 12:19:31.840 ,3,1,0.,4.8,2.,4.8,0.,4.8,3.,4.8
1979-07-05 12:19:36.640 ,0,1,0.,4.8,5.,4.8,2.,4.8,0.,4.8
1979-07-05 12:19:41.440 ,0,1,0.,4.8,1.,4.8,0.,4.8,0.,4.8
1979-07-05 12:19:46.240 ,0,1,0.,4.8,4.,4.8,1.,4.8,0.,4.8
1979-07-05 12:19:51.040 ,0,1,0.,4.8,5.,4.8,0.,4.8,3.,4.8
1979-07-05 12:19:55.840 ,0,1,0.,4.8,1.,4.8,2.,4.8,0.,4.8
1979-07-05 12:20:00.640 ,4,1,0.,4.8,2.,4.8,2.,4.8,0.,4.8
1979-07-05 12:20:05.440 ,4,1,0.,4.8,4.,4.8,0.,4.8,0.,4.8
1979-07-05 12:20:10.240 ,4,1,0.,4.8,1.,4.8,1.,4.8,0.,4.8
1979-07-05 12:20:15.040 ,4,1,0.,4.8,7.,4.8,3.,4.8,0.,4.8
1979-07-05 12:20:19.840 ,4,1,0.,4.8,7.,4.8,0.,4.8,0.,4.8
1979-07-05 12:20:24.640 ,7,1,0.,4.8,6.,4.8,0.,4.8,0.,4.8
1979-07-05 12:20:29.440 ,7,1,0.,4.8,3.,4.8,0.,4.8,0.,4.8
1979-07-05 12:20:34.240 ,7,1,0.,4.8,3.,4.8,2.,4.8,1.,4.8
1979-07-05 12:20:39.040 ,7,1,0.,4.8,2.,4.8,0.,4.8,0.,4.8
1979-07-05 12:20:43.840 ,7,1,0.,4.8,0.,4.8,0.,4.8,0.,4.8
1979-07-05 12:20:48.640 ,3,1,0.,4.8,1.,4.8,0.,4.8,0.,4.8
1979-07-05 12:20:53.440 ,3,1,0.,4.8,3.,4.8,2.,4.8,0.,4.8
1979-07-05 12:20:58.240 ,3,1,0.,4.8,4.,4.8,1.,4.8,1.,4.8
1979-07-05 12:21:03.040 ,3,1,0.,4.8,7.,4.8,1.,4.8,1.,4.8
1979-07-05 12:21:07.840 ,3,1,0.,4.8,5.,4.8,2.,4.8,1.,4.8
1979-07-05 12:21:12.640 ,0,1,0.,4.8,1.,4.8,1.,4.8,0.,4.8
1979-07-05 12:21:17.440 ,0,1,0.,4.8,3.,4.8,2.,4.8,1.,4.8
1979-07-05 12:21:22.240 ,0,1,0.,4.8,3.,4.8,0.,4.8,1.,4.8
1979-07-05 12:21:27.040 ,0,1,0.,4.8,3.,4.8,0.,4.8,0.,4.8
1979-07-05 12:21:31.840 ,0,1,0.,4.8,7.,4.8,1.,4.8,2.,4.8
1979-07-05 12:21:36.640 ,4,1,0.,4.8,5.,4.8,2.,4.8,0.,4.8
1979-07-05 12:21:41.440 ,4,1,0.,4.8,4.,4.8,0.,4.8,0.,4.8
1979-07-05 12:21:46.240 ,4,1,0.,4.8,2.,4.8,2.,4.8,0.,4.8
1979-07-05 12:21:51.040 ,4,1,0.,4.8,6.,4.8,4.,4.8,3.,4.8
1979-07-05 12:21:55.840 ,4,1,0.,4.8,2.,4.8,1.,4.8,0.,4.8
1979-07-05 12:22:00.640 ,7,1,0.,4.8,7.,4.8,2.,4.8,0.,4.8
1979-07-05 12:22:05.440 ,7,1,0.,4.8,3.,4.8,3.,4.8,0.,4.8
1979-07-05 12:22:10.240 ,7,1,0.,4.8,6.,4.8,3.,4.8,0.,4.8
1979-07-05 12:22:15.040 ,7,1,0.,4.8,1.,4.8,0.,4.8,2.,4.8
1979-07-05 12:22:19.840 ,7,1,0.,4.8,0.,4.8,0.,4.8,0.,4.8
1979-07-05 12:22:24.640 ,3,1,0.,4.8,2.,4.8,1.,4.8,0.,4.8
1979-07-05 12:22:29.440 ,3,1,0.,4.8,1.,4.8,6.,4.8,1.,4.8
1979-07-05 12:22:34.240 ,3,1,0.,4.8,2.,4.8,2.,4.8,1.,4.8
1979-07-05 12:22:39.040 ,3,1,0.,4.8,6.,4.8,0.,4.8,0.,4.8
1979-07-05 12:22:43.840 ,3,1,0.,4.8,6.,4.8,0.,4.8,0.,4.8
1979-07-05 12:22:48.640 ,0,1,0.,4.8,0.,4.8,2.,4.8,1.,4.8
1979-07-05 12:22:53.440 ,0,1,0.,4.8,4.,4.8,0.,4.8,1.,4.8
1979-07-05 12:22:58.240 ,0,1,0.,4.8,1.,4.8,2.,4.8,1.,4.8
1979-07-05 12:23:03.040 ,0,1,0.,4.8,3.,4.8,2.,4.8,1.,4.8
1979-07-05 12:23:07.840 ,0,1,0.,4.8,4.,4.8,1.,4.8,1.,4.8
1979-07-05 12:23:12.640 ,4,1,0.,4.8,3.,4.8,0.,4.8,1.,4.8
1979-07-05 12:23:17.440 ,4,1,0.,4.8,2.,4.8,1.,4.8,0.,4.8
1979-07-05 12:23:22.240 ,4,1,0.,4.8,5.,4.8,1.,4.8,0.,4.8
1979-07-05 12:23:27.040 ,4,1,0.,4.8,1.,4.8,1.,4.8,1.,4.8
1979-07-05 12:23:31.840 ,4,1,0.,4.8,8.,4.8,0.,4.8,0.,4.8
1979-07-05 12:23:36.640 ,7,1,0.,4.8,3.,4.8,0.,4.8,0.,4.8
1979-07-05 12:23:41.440 ,7,1,0.,4.8,3.,4.8,0.,4.8,0.,4.8
1979-07-05 12:23:46.240 ,7,1,0.,4.8,7.,4.8,0.,4.8,1.,4.8
1979-07-05 12:23:51.040 ,7,1,0.,4.8,3.,4.8,0.,4.8,2.,4.8
1979-07-05 12:23:55.840 ,7,1,0.,4.8,2.,4.8,0.,4.8,0.,4.8
1979-07-05 12:24:00.640 ,3,1,0.,4.8,0.,4.8,1.,4.8,0.,4.8
1979-07-05 12:24:05.440 ,3,1,0.,4.8,6.,4.8,1.,4.8,0.,4.8
1979-07-05 12:24:10.240 ,3,1,0.,4.8,4.,4.8,1.,4.8,2.,4.8
1979-07-05 12:24:15.040 ,3,1,0.,4.8,8.,4.8,2.,4.8,0.,4.8
1979-07-05 12:24:19.840 ,3,1,0.,4.8,4.,4.8,1.,4.8,0.,4.8
1979-07-05 12:24:24.640 ,0,1,0.,4.8,7.,4.8,2.,4.8,1.,4.8
1979-07-05 12:24:29.440 ,0,1,0.,4.8,2.,4.8,2.,4.8,0.,4.8
1979-07-05 12:24:34.240 ,0,1,0.,4.8,5.,4.8,0.,4.8,0.,4.8
1979-07-05 12:24:39.040 ,0,1,0.,4.8,5.,4.8,2.,4.8,0.,4.8
1979-07-05 12:24:43.840 ,0,1,0.,4.8,2.,4.8,0.,4.8,0.,4.8
1979-07-05 12:24:48.640 ,4,1,0.,4.8,5.,4.8,0.,4.8,0.,4.8
1979-07-05 12:24:53.440 ,4,1,0.,4.8,3.,4.8,1.,4.8,2.,4.8
1979-07-05 12:24:58.240 ,4,1,0.,4.8,3.,4.8,0.,4.8,0.,4.8
1979-07-05 12:25:03.040 ,4,1,0.,4.8,8.,4.8,0.,4.8,0.,4.8
1979-07-05 12:25:07.840 ,4,1,0.,4.8,7.,4.8,0.,4.8,1.,4.8
1979-07-05 12:25:12.640 ,7,1,0.,4.8,4.,4.8,0.,4.8,2.,4.8
1979-07-05 12:25:17.440 ,7,1,0.,4.8,2.,4.8,2.,4.8,1.,4.8
1979-07-05 12:25:22.240 ,7,1,0.,4.8,5.,4.8,0.,4.8,0.,4.8
1979-07-05 12:25:27.040 ,7,1,0.,4.8,1.,4.8,0.,4.8,0.,4.8
1979-07-05 12:25:31.840 ,7,1,0.,4.8,0.,4.8,0.,4.8,0.,4.8
1979-07-05 12:25:36.640 ,3,1,0.,4.8,1.,4.8,1.,4.8,0.,4.8
1979-07-05 12:25:41.440 ,3,1,0.,4.8,5.,4.8,2.,4.8,0.,4.8
1979-07-05 12:25:46.240 ,3,1,0.,4.8,3.,4.8,1.,4.8,1.,4.8
1979-07-05 12:25:51.040 ,3,1,0.,4.8,6.,4.8,2.,4.8,0.,4.8
1979-07-05 12:25:55.840 ,3,1,0.,4.8,4.,4.8,1.,4.8,2.,4.8
1979-07-05 12:26:00.640 ,0,1,0.,4.8,2.,4.8,0.,4.8,0.,4.8
1979-07-05 12:26:05.440 ,0,1,0.,4.8,2.,4.8,2.,4.8,0.,4.8
1979-07-05 12:26:10.240 ,0,1,0.,4.8,3.,4.8,3.,4.8,1.,4.8
1979-07-05 12:26:15.040 ,0,1,0.,4.8,3.,4.8,2.,4.8,2.,4.8
1979-07-05 12:26:19.840 ,0,1,0.,4.8,5.,4.8,1.,4.8,1.,4.8
1979-07-05 12:26:24.640 ,4,1,0.,4.8,4.,4.8,1.,4.8,0.,4.8
1979-07-05 12:26:29.440 ,4,1,0.,4.8,1.,4.8,1.,4.8,1.,4.8
1979-07-05 12:26:34.240 ,4,1,0.,4.8,0.,4.8,0.,4.8,0.,4.8
1979-07-05 12:26:39.040 ,4,1,0.,4.8,6.,4.8,0.,4.8,1.,4.8
1979-07-05 12:26:43.840 ,4,1,0.,4.8,7.,4.8,1.,4.8,1.,4.8
1979-07-05 12:26:48.640 ,7,1,0.,4.8,1.,4.8,0.,4.8,1.,4.8
1979-07-05 12:26:53.440 ,7,1,0.,4.8,4.,4.8,1.,4.8,0.,4.8
1979-07-05 12:26:58.240 ,7,1,0.,4.8,8.,4.8,0.,4.8,2.,4.8
1979-07-05 12:27:03.040 ,7,1,0.,4.8,0.,4.8,0.,4.8,0.,4.8
1979-07-05 12:27:07.840 ,7,1,0.,4.8,1.,4.8,1.,4.8,0.,4.8
1979-07-05 12:27:12.640 ,3,1,0.,4.8,1.,4.8,0.,4.8,0.,4.8
1979-07-05 12:27:17.440 ,3,1,0.,4.8,4.,4.8,0.,4.8,1.,4.8
1979-07-05 12:27:22.240 ,3,1,0.,4.8,5.,4.8,2.,4.8,1.,4.8
1979-07-05 12:27:27.040 ,3,1,0.,4.8,4.,4.8,4.,4.8,1.,4.8
1979-07-05 12:27:31.840 ,3,1,0.,4.8,7.,4.8,3.,4.8,1.,4.8
1979-07-05 12:27:36.640 ,0,1,0.,4.8,3.,4.8,2.,4.8,0.,4.8
1979-07-05 12:27:41.440 ,0,1,0.,4.8,3.,4.8,1.,4.8,1.,4.8
1979-07-05 12:27:46.240 ,0,1,0.,4.8,4.,4.8,2.,4.8,1.,4.8
1979-07-05 12:27:51.040 ,0,1,0.,4.8,2.,4.8,1.,4.8,2.,4.8
1979-07-05 12:27:55.840 ,0,1,0.,4.8,5.,4.8,1.,4.8,0.,4.8
1979-07-05 12:28:00.640 ,4,1,0.,4.8,6.,4.8,4.,4.8,2.,4.8
1979-07-05 12:28:05.440 ,4,1,0.,4.8,4.,4.8,0.,4.8,0.,4.8
1979-07-05 12:28:10.240 ,4,1,0.,4.8,1.,4.8,1.,4.8,1.,4.8
1979-07-05 12:28:15.040 ,4,1,0.,4.8,3.,4.8,1.,4.8,1.,4.8
1979-07-05 12:28:19.840 ,4,1,0.,4.8,8.,4.8,3.,4.8,2.,4.8
1979-07-05 12:28:24.640 ,7,1,0.,4.8,6.,4.8,0.,4.8,3.,4.8
1979-07-05 12:28:29.440 ,7,1,0.,4.8,2.,4.8,1.,4.8,0.,4.8
1979-07-05 12:28:34.240 ,7,1,0.,4.8,4.,4.8,4.,4.8,3.,4.8
1979-07-05 12:28:39.040 ,7,1,0.,4.8,1.,4.8,0.,4.8,0.,4.8
1979-07-05 12:28:43.840 ,7,1,0.,4.8,0.,4.8,0.,4.8,0.,4.8
1979-07-05 12:28:48.640 ,3,1,0.,4.8,2.,4.8,1.,4.8,0.,4.8
1979-07-05 12:28:53.440 ,3,1,0.,4.8,4.,4.8,1.,4.8,0.,4.8
1979-07-05 12:28:58.240 ,3,1,0.,4.8,6.,4.8,0.,4.8,0.,4.8
1979-07-05 12:29:03.040 ,3,1,0.,4.8,4.,4.8,2.,4.8,0.,4.8
1979-07-05 12:29:07.840 ,3,1,0.,4.8,4.,4.8,1.,4.8,0.,4.8
1979-07-05 12:29:12.640 ,0,1,0.,4.8,4.,4.8,2.,4.8,0.,4.8
1979-07-05 12:29:17.440 ,0,1,0.,4.8,1.,4.8,0.,4.8,2.,4.8
1979-07-05 12:29:22.240 ,0,1,0.,4.8,3.,4.8,0.,4.8,1.,4.8
1979-07-05 12:29:27.040 ,0,1,0.,4.8,3.,4.8,2.,4.8,1.,4.8
1979-07-05 12:29:31.840 ,0,1,0.,4.8,2.,4.8,1.,4.8,0.,4.8
1979-07-05 12:29:36.640 ,0,0,0.,4.8,3.,4.8,1.,4.8,2.,4.8
1979-07-05 12:29:41.440 ,0,0,0.,4.8,4.,4.8,0.,4.8,0.,4.8
1979-07-05 12:29:46.240 ,0,0,0.,4.8,3.,4.8,0.,4.8,1.,4.8
1979-07-05 12:29:51.040 ,0,0,0.,4.8,3.,4.8,0.,4.8,2.,4.8
1979-07-05 12:29:55.840 ,0,0,0.,4.8,6.,4.8,3.,4.8,1.,4.8
1979-07-05 12:30:00.640 ,0,0,0.,4.8,6.,4.8,1.,4.8,0.,4.8
1979-07-05 12:30:05.440 ,0,0,0.,4.8,0.,4.8,0.,4.8,1.,4.8
1979-07-05 12:30:10.240 ,0,0,0.,4.8,5.,4.8,0.,4.8,0.,4.8
1979-07-05 12:30:15.040 ,0,0,0.,4.8,2.,4.8,0.,4.8,1.,4.8
1979-07-05 12:30:19.840 ,0,0,0.,4.8,0.,4.8,0.,4.8,0.,4.8
1979-07-05 12:30:24.640 ,5,0,0.,4.8,1.,4.8,0.,4.8,0.,4.8
1979-07-05 12:30:29.440 ,5,0,0.,4.8,10.,4.8,3.,4.8,1.,4.8
1979-07-05 12:30:34.240 ,5,0,0.,4.8,3.,4.8,0.,4.8,0.,4.8
1979-07-05 12:30:39.040 ,5,0,0.,4.8,3.,4.8,0.,4.8,0.,4.8
1979-07-05 12:30:43.840 ,5,0,0.,4.8,1.,4.8,0.,4.8,1.,4.8
1979-07-05 12:30:48.640 ,5,0,0.,4.8,1.,4.8,0.,4.8,1.,4.8
1979-07-05 12:30:53.440 ,5,0,0.,4.8,7.,4.8,0.,4.8,2.,4.8
1979-07-05 12:30:58.240 ,5,0,0.,4.8,1.,4.8,0.,4.8,0.,4.8
1979-07-05 12:31:03.040 ,5,0,0.,4.8,3.,4.8,1.,4.8,1.,4.8
1979-07-05 12:31:07.840 ,5,0,0.,4.8,7.,4.8,1.,4.8,1.,4.8
1979-07-05 12:31:12.640 ,4,0,0.,4.8,4.,4.8,2.,4.8,1.,4.8
1979-07-05 12:31:17.440 ,4,0,0.,4.8,6.,4.8,0.,4.8,0.,4.8
1979-07-05 12:31:22.240 ,4,0,0.,4.8,7.,4.8,1.,4.8,1.,4.8
1979-07-05 12:31:27.040 ,4,0,0.,4.8,5.,4.8,1.,4.8,0.,4.8
1979-07-05 12:31:31.840 ,4,0,0.,4.8,5.,4.8,2.,4.8,0.,4.8
1979-07-05 12:31:36.640 ,4,0,0.,4.8,4.,4.8,3.,4.8,1.,4.8
1979-07-05 12:31:41.440 ,4,0,0.,4.8,9.,4.8,1.,4.8,1.,4.8
1979-07-05 12:31:46.240 ,4,0,0.,4.8,5.,4.8,1.,4.8,1.,4.8
1979-07-05 12:31:51.040 ,4,0,0.,4.8,9.,4.8,2.,4.8,0.,4.8
1979-07-05 12:31:55.840 ,4,0,0.,4.8,4.,4.8,1.,4.8,1.,4.8
1979-07-05 12:32:00.640 ,3,0,0.,4.8,6.,4.8,3.,4.8,0.,4.8
1979-07-05 12:32:05.440 ,3,0,0.,4.8,6.,4.8,1.,4.8,1.,4.8
1979-07-05 12:32:10.240 ,3,0,0.,4.8,4.,4.8,0.,4.8,0.,4.8
1979-07-05 12:32:15.040 ,3,0,0.,4.8,2.,4.8,3.,4.8,0.,4.8
1979-07-05 12:32:19.840 ,3,0,0.,4.8,4.,4.8,1.,4.8,2.,4.8
1979-07-05 12:32:24.640 ,3,0,0.,4.8,7.,4.8,0.,4.8,0.,4.8
1979-07-05 12:32:29.440 ,3,0,0.,4.8,10.,4.8,2.,4.8,1.,4.8
1979-07-05 12:32:34.240 ,3,0,0.,4.8,6.,4.8,1.,4.8,1.,4.8
1979-07-05 12:32:39.040 ,3,0,0.,4.8,2.,4.8,0.,4.8,0.,4.8
1979-07-05 12:32:43.840 ,3,0,0.,4.8,4.,4.8,0.,4.8,0.,4.8
1979-07-05 12:32:48.640 ,2,0,0.,4.8,6.,4.8,1.,4.8,0.,4.8
1979-07-05 12:32:53.440 ,2,0,0.,4.8,6.,4.8,0.,4.8,0.,4.8
1979-07-05 12:32:58.240 ,2,0,0.,4.8,1.,4.8,2.,4.8,0.,4.8
1979-07-05 12:33:03.040 ,2,0,0.,4.8,3.,4.8,0.,4.8,0.,4.8
1979-07-05 12:33:07.840 ,2,0,0.,4.8,4.,4.8,2.,4.8,0.,4.8
1979-07-05 12:33:12.640 ,2,0,0.,4.8,1.,4.8,0.,4.8,0.,4.8
1979-07-05 12:33:17.440 ,2,0,0.,4.8,2.,4.8,1.,4.8,1.,4.8